Location: Doschendorf
(50.0069°N, 11.0602°E)
Time: 20:19:06
(UTC+00:00)

YAOGAN 6 - Pass Details

Date: 17 November 2019
Orbit: 466 x 504 km, 97.0° (Epoch: 06 December)

Event Time Altitude Azimuth Distance (km) Brightness Sun altitude
Rises 17:31:38 0° 173° (S) 2,500 6.2 -19.4°
Reaches altitude 10° 17:33:42 10° 177° (S) 1,625 5.2 -19.7°
Maximum altitude 17:37:09 63° 259° (WSW) 527 2.9 -20.2°
Drops below altitude 10° 17:40:38 10° 342° (NNW) 1,636 5.4 -20.8°
Sets 17:42:43 0° 345° (NNW) 2,518 6.3 -21.1°
